Weather History for Keokuk, IA

Change the Weather History Date:

Friday, January 31, 2014

  Actual Average Record
Temperature  
Mean Temperature 16 °F -  
Max Temperature 19 °F 36 °F 62 °F (2012)
Min Temperature 12 °F 16 °F -11 °F (1936)
Degree Days  
Heating Degree Days 50    
Moisture  
Dew Point 11 °F    
Average Humidity 82    
Maximum Humidity 93    
Minimum Humidity 67    
Precipitation  
Precipitation 0.00 in - - ()
Sea Level Pressure  
Sea Level Pressure 30.09 in    
Wind  
Wind Speed 8 mph (NNE)    
Max Wind Speed 13 mph    
Max Gust Speed 17 mph    
Visibility 6 miles    
Events Snow    
Averages and records for this station are not official NWS values.
T = Trace of Precipitation, MM = Missing Value Source: NWS Daily Summary

Daily Weather History Graph

Daily Weather History Graph

Search for Another Location

Airport:

Trip Planner

Search our weather history database for the weather conditions in past years. The results will help you decide how hot, cold, wet, or windy it might be!

Date:

Astronomy

Jan. 31, 2014 Rise Set
Actual Time 7:16 AM CST 5:22 PM CST
Civil Twilight 6:47 AM CST 5:51 PM CST
Nautical Twilight 6:14 AM CST 6:24 PM CST
Astronomical Twilight 5:42 AM CST 6:56 PM CST
Moon 7:25 AM CST (1/31) 6:47 PM CST (1/31)
Length of Visible Light 11h 04m
Length of Day
10h 06m
New Moon, 1% of the Moon is Illuminated
Jan 31
New Moon
Feb 6
First Quarter
Feb 14
Full
Feb 22
Last Quarter
Mar 1
New

Hourly Weather History & Observations

Time (CST) Temp. Windchill Dew Point Humidity Pressure Visibility Wind Dir Wind Speed Gust Speed Precip Events Conditions
12:15 AM 19.4 °F 9.5 °F 14.0 °F 80% 30.01 in 10.0 mi North 8.1 mph - N/A   Clear
12:35 AM 19.4 °F 6.6 °F 14.0 °F 80% 30.01 in 10.0 mi NNW 12.7 mph - N/A   Mostly Cloudy
12:55 AM 19.4 °F 7.9 °F 12.2 °F 74% 30.04 in 10.0 mi NNW 10.4 mph 17.3 mph N/A   Mostly Cloudy
1:15 AM 19.4 °F 7.9 °F 12.2 °F 74% 30.04 in 10.0 mi NNW 10.4 mph - N/A   Mostly Cloudy
1:35 AM 19.4 °F 8.6 °F 12.2 °F 74% 30.03 in 10.0 mi NNW 9.2 mph - N/A   Overcast
1:55 AM 19.4 °F 7.9 °F 10.4 °F 68% 30.05 in 10.0 mi NNW 10.4 mph - N/A   Overcast
2:15 AM 19.4 °F 11.5 °F 10.4 °F 68% 30.05 in 10.0 mi NNW 5.8 mph 12.7 mph N/A   Overcast
2:35 AM 19.4 °F 8.6 °F 10.4 °F 68% 30.06 in 10.0 mi NNW 9.2 mph - N/A   Overcast
2:55 AM 17.6 °F 5.0 °F 10.4 °F 73% 30.05 in 10.0 mi North 11.5 mph - N/A   Overcast
3:15 AM 17.6 °F 5.7 °F 10.4 °F 73% 30.06 in 10.0 mi North 10.4 mph - N/A   Overcast
3:35 AM 17.6 °F 5.0 °F 10.4 °F 73% 30.05 in 10.0 mi North 11.5 mph - N/A   Overcast
3:55 AM 17.6 °F 5.7 °F 10.4 °F 73% 30.06 in 10.0 mi NNW 10.4 mph - N/A   Overcast
4:15 AM 17.6 °F 8.2 °F 10.4 °F 73% 30.07 in 10.0 mi NNW 6.9 mph 12.7 mph N/A   Overcast
4:35 AM 17.6 °F 8.2 °F 10.4 °F 73% 30.09 in 10.0 mi NNW 6.9 mph - N/A   Overcast
4:55 AM 15.8 °F 5.1 °F 8.6 °F 73% 30.10 in 10.0 mi NNW 8.1 mph - N/A   Overcast
5:15 AM 15.8 °F 3.4 °F 6.8 °F 68% 30.10 in 10.0 mi North 10.4 mph - N/A   Overcast
5:35 AM 15.8 °F 5.1 °F 6.8 °F 68% 30.11 in 10.0 mi North 8.1 mph 13.8 mph N/A   Overcast
5:55 AM 15.8 °F 4.2 °F 6.8 °F 68% 30.11 in 10.0 mi North 9.2 mph - N/A   Overcast
6:15 AM 14.0 °F 2.9 °F 6.8 °F 73% 30.10 in 10.0 mi North 8.1 mph - N/A   Overcast
6:35 AM 14.0 °F 2.9 °F 5.0 °F 67% 30.11 in - North 8.1 mph - N/A   Overcast
6:55 AM 14.0 °F 3.9 °F 5.0 °F 67% 30.13 in 8.0 mi North 6.9 mph - N/A Snow Light Snow
7:15 AM 14.0 °F 8.2 °F 6.8 °F 73% 30.15 in 2.5 mi North 3.5 mph - N/A Snow Light Snow
7:35 AM 14.0 °F 8.2 °F 8.6 °F 79% 30.16 in 1.0 mi North 3.5 mph - N/A Snow Light Snow
7:55 AM 14.0 °F 5.1 °F 10.4 °F 86% 30.14 in 0.5 mi North 5.8 mph - N/A Snow Light Snow
8:15 AM 12.2 °F - 10.4 °F 92% 30.15 in 2.0 mi Calm Calm - N/A Snow Light Snow
8:35 AM 14.0 °F 8.2 °F 8.6 °F 79% 30.15 in 4.0 mi NNE 3.5 mph - N/A Snow Light Snow
8:55 AM 14.0 °F 5.1 °F 8.6 °F 79% 30.16 in 2.5 mi North 5.8 mph - N/A Snow Light Snow
9:15 AM 14.0 °F 6.5 °F 8.6 °F 79% 30.17 in 2.5 mi North 4.6 mph - N/A Snow Light Snow
9:35 AM 12.2 °F 2.9 °F 8.6 °F 85% 30.17 in 0.8 mi NNW 5.8 mph - N/A Snow Light Snow
9:55 AM 12.2 °F 2.9 °F 8.6 °F 85% 30.17 in 1.2 mi North 5.8 mph - N/A Snow Light Snow
10:15 AM 14.0 °F 2.9 °F 8.6 °F 79% 30.17 in 1.8 mi North 8.1 mph - N/A Snow Light Snow
10:35 AM 14.0 °F 2.9 °F 10.4 °F 86% 30.16 in 0.5 mi North 8.1 mph - N/A Snow Light Snow
10:55 AM 14.0 °F 1.2 °F 10.4 °F 86% 30.16 in 1.2 mi North 10.4 mph - N/A Snow Light Snow
11:15 AM 14.0 °F 1.2 °F 10.4 °F 86% 30.16 in 1.5 mi North 10.4 mph - N/A Snow Light Snow
11:35 AM 14.0 °F 2.9 °F 10.4 °F 86% 30.17 in 1.0 mi North 8.1 mph - N/A Snow Light Snow
11:55 AM 14.0 °F 2.9 °F 10.4 °F 86% 30.16 in 1.2 mi North 8.1 mph - N/A Snow Light Snow
12:15 PM 14.0 °F 2.9 °F 10.4 °F 86% 30.15 in 0.5 mi North 8.1 mph - N/A Snow Light Snow
12:35 PM 14.0 °F 5.1 °F 10.4 °F 86% 30.14 in 0.8 mi NNE 5.8 mph - N/A Snow Light Snow
12:55 PM 15.8 °F 6.1 °F 10.4 °F 79% 30.13 in 1.8 mi North 6.9 mph - N/A Snow Light Snow
1:15 PM 15.8 °F 6.1 °F 10.4 °F 79% 30.12 in 2.0 mi North 6.9 mph - N/A Snow Light Snow
1:35 PM 15.8 °F 5.1 °F 10.4 °F 79% 30.11 in 1.5 mi NNE 8.1 mph - N/A Snow Light Snow
1:55 PM 15.8 °F 5.1 °F 12.2 °F 86% 30.10 in 1.0 mi North 8.1 mph - N/A Snow Light Snow
2:15 PM 15.8 °F 6.1 °F 12.2 °F 86% 30.11 in 2.5 mi NNE 6.9 mph - N/A Snow Light Snow
2:35 PM 15.8 °F 6.1 °F 12.2 °F 86% 30.11 in 2.5 mi NE 6.9 mph - N/A Snow Light Snow
2:55 PM 15.8 °F 6.1 °F 12.2 °F 86% 30.10 in 9.0 mi North 6.9 mph - N/A Snow Light Snow
3:15 PM 15.8 °F 8.6 °F 12.2 °F 86% 30.09 in 7.0 mi NNE 4.6 mph - N/A Snow Light Snow
3:35 PM 15.8 °F 7.2 °F 12.2 °F 86% 30.08 in 9.0 mi NE 5.8 mph - N/A Snow Light Snow
3:55 PM 17.6 °F 9.3 °F 12.2 °F 79% 30.08 in 6.0 mi NE 5.8 mph - N/A Snow Light Snow
4:15 PM 17.6 °F 8.2 °F 14.0 °F 86% 30.08 in 5.0 mi NE 6.9 mph - N/A Snow Light Snow
4:35 PM 17.6 °F 9.3 °F 12.2 °F 79% 30.08 in 9.0 mi ENE 5.8 mph - N/A Snow Light Snow
4:55 PM 15.8 °F 8.6 °F 12.2 °F 86% 30.08 in 10.0 mi NE 4.6 mph - N/A Snow Light Snow
5:15 PM 15.8 °F 8.6 °F 14.0 °F 93% 30.08 in 7.0 mi ENE 4.6 mph - N/A   Overcast
5:35 PM 15.8 °F 8.6 °F 14.0 °F 93% 30.08 in 3.0 mi Variable 4.6 mph - N/A Snow Light Snow
5:55 PM 15.8 °F 8.6 °F 14.0 °F 93% 30.08 in 6.0 mi NE 4.6 mph - N/A Snow Light Snow
6:15 PM 15.8 °F 8.6 °F 14.0 °F 93% 30.07 in 6.0 mi NE 4.6 mph - N/A Snow Light Snow
6:35 PM 15.8 °F 7.2 °F 14.0 °F 93% 30.08 in 5.0 mi NE 5.8 mph - N/A Snow Light Snow
6:55 PM 15.8 °F 7.2 °F 14.0 °F 93% 30.07 in 8.0 mi NE 5.8 mph - N/A Snow Light Snow
7:15 PM 15.8 °F 7.2 °F 14.0 °F 93% 30.08 in 7.0 mi NNE 5.8 mph - N/A Snow Light Snow
7:35 PM 15.8 °F 6.1 °F 14.0 °F 93% 30.07 in 5.0 mi NNE 6.9 mph - N/A Snow Light Snow
7:55 PM 15.8 °F 7.2 °F 14.0 °F 93% 30.06 in 6.0 mi ENE 5.8 mph - N/A Snow Light Snow
8:15 PM 15.8 °F - 14.0 °F 93% 30.06 in 7.0 mi North - - N/A Snow Light Snow
8:35 PM 15.8 °F 6.1 °F 14.0 °F 93% 30.05 in 9.0 mi NNE 6.9 mph - N/A Snow Light Snow
8:55 PM 15.8 °F 6.1 °F 14.0 °F 93% 30.06 in 10.0 mi NE 6.9 mph - N/A Snow Light Snow
9:15 PM 17.6 °F 8.2 °F 14.0 °F 86% 30.05 in 10.0 mi NE 6.9 mph - N/A   Overcast
9:35 PM 17.6 °F 9.3 °F 14.0 °F 86% 30.05 in 10.0 mi NE 5.8 mph - N/A   Overcast
9:55 PM 17.6 °F 7.3 °F 14.0 °F 86% 30.03 in 7.0 mi NE 8.1 mph - N/A Snow Light Snow
10:15 PM 17.6 °F 9.3 °F 14.0 °F 86% 30.04 in 8.0 mi Variable 5.8 mph - N/A   Overcast
10:35 PM 17.6 °F 8.2 °F 15.8 °F 93% 30.03 in 6.0 mi NE 6.9 mph - N/A Snow Light Snow
10:55 PM 17.6 °F 8.2 °F 15.8 °F 93% 30.03 in 10.0 mi NE 6.9 mph - N/A   Overcast
11:15 PM 17.6 °F 8.2 °F 15.8 °F 93% 30.01 in 10.0 mi NE 6.9 mph - N/A   Overcast
11:35 PM 17.6 °F 7.3 °F 15.8 °F 93% 30.00 in 10.0 mi NE 8.1 mph - N/A   Overcast
11:55 PM 17.6 °F 8.2 °F 15.8 °F 93% 29.99 in 8.0 mi ENE 6.9 mph - N/A   Overcast